Location: Cella
(44.7333°N, 10.5667°E)
Time: 13:10:15
(UTC+00:00)

COSMOS 1867 COOLANT - Pass Details

Date: 21 September 2021
Orbit: 770 x 802 km, 65.0° (Epoch: 15 October)

Event Time Altitude Azimuth Distance (km) Brightness Sun altitude
Rises 21:44:50 0° 324° (NW) 3,320 ? -41.1°
Reaches altitude 10° 21:47:17 10° 323° (NW) 2,385 ? -41.3°
Enters shadow 21:48:37 18° 322° (NW) 1,886 ? -41.4°
